Location: Pine Mountain Observatory
(43.7910°N, 120.9377°W)
Time: 02:31:52
(UTC-08:00)

Daily predictions for brighter satellites

Satellite Brightness Start Highest point End
(mag) Time Altitude Azimuth Time Altitude Azimuth Time Altitude Azimuth
CENTAUR R/B 3.4 04:14:51 42° NNE 04:14:51 42° NNE 04:19:31 10° NNE
Cosmos 2369 Rocket 4.2 04:10:40 19° NNE 04:12:42 23° NE 04:17:10 10° E
Lacrosse 5 3.8 04:14:07 23° SE 04:15:11 24° ESE 04:19:16 10° ENE
Meteor 1-18 Rocket 4.4 04:29:57 72° SE 04:29:57 72° SE 04:35:19 10° SSE
COSMO-SKYMED 1 4.5 04:25:43 10° SE 04:29:23 27° ENE 04:30:31 24° NE
Meteor 1-20 Rocket 4.4 04:31:53 10° S 04:37:24 68° E 04:42:52 10° NNE
Lacrosse 5 rocket 4.1 04:42:30 11° NNE 04:42:30 11° NNE 04:42:54 10° NNE
Cosmos 2333 Rocket 4.5 04:46:13 12° N 04:46:13 12° N 04:46:37 10° N
Tiangong 2 4.1 04:44:45 16° E 04:44:45 16° E 04:45:32 10° E
Cosmos 1943 Rocket 4.2 04:50:35 11° N 04:54:41 22° NE 04:58:56 10° E
SL-08 ROCKET BODY 4.2 04:55:20 10° SSW 05:01:18 77° W 05:07:12 10° N
SL-16 R/B 3.2 05:04:00 31° NNW 05:04:00 31° NNW 05:07:21 10° NNE
Cosmos 2327 Rocket 4.4 04:59:09 10° SSW 05:05:31 77° W 05:11:51 10° N
Cosmos 2074 Rocket 3.9 05:08:39 10° SSW 05:14:51 62° W 05:21:04 10° N
Cosmos 2056 Rocket 3.3 05:14:21 49° NW 05:15:42 74° WSW 05:20:47 10° SSE
Abrixas rocket 3.1 05:16:06 46° SSE 05:16:06 46° SSE 05:19:21 10° ENE
SKYMED 2 3.5 05:12:57 10° SSE 05:17:17 86° ENE 05:19:09 34° N
ADEOS II 4.1 05:12:57 10° N 05:13:47 14° N 05:13:47 14° N
Meteor 1-25 Rocket 4.4 05:14:34 10° SSW 05:20:11 47° WNW 05:25:48 10° N
Cosmos 1346 Rocket 4.0 05:22:47 27° SSW 05:22:47 27° SSW 05:24:50 10° S
Meteor 1-28 Rocket 4.1 05:17:39 10° SSE 05:21:18 48° ENE 05:24:18 15° N
Meteor 1-11 Rocket 4.0 05:17:01 10° S 05:22:50 72° E 05:28:32 10° NNE
Cosmos 1624 Rocket 4.1 05:27:43 40° WNW 05:29:12 52° WSW 05:34:20 10° S
Ariane Rocket 3.3 05:24:35 10° NNE 05:29:39 67° ESE 05:34:40 10° S
Cosmos 2237 Rocket 4.2 05:34:02 11° NNW 05:34:02 11° NNW 05:34:35 10° NNW
SJ-6F 4.4 05:27:51 10° N 05:31:52 55° WNW 05:35:50 10° SSW
Cosmos 2184 Rocket 4.1 05:26:16 10° SSW 05:32:10 48° WNW 05:38:09 10° N
Meteor 1-13 Rocket 4.2 05:26:31 10° NNW 05:32:28 73° W 05:38:22 10° S
DMSP B5D1-3 4.4 05:27:43 10° SSE 05:32:52 84° WSW 05:38:04 10° NNW
Cosmos 1371 Rocket 4.5 05:33:33 37° W 05:34:09 38° WSW 05:38:58 10° SSW
Meteor 1-23 Rocket 4.5 05:34:26 10° N 05:40:00 68° ENE 05:45:31 10° SSE
CZ-3 R/B 3.8 05:35:34 10° SW 05:41:29 16° S 05:44:47 10° SSE
CSL-04 Rocket 4.0 05:36:20 10° NNE 05:41:54 70° ESE 05:47:22 10° S
Cosmos 1025 Rocket 3.2 05:38:27 10° N 05:42:52 75° E 05:47:13 10° SSE
USA 215 3.2 05:37:17 10° NE 05:43:50 81° NW 05:50:22 10° WSW
Cosmos 2154 Rocket 3.9 05:41:43 10° SSW 05:47:54 69° W 05:54:06 10° N
Radarsat Rocket 4.5 05:41:46 10° NNE 05:48:46 69° WNW 05:56:39 10° SSW
Meteor 2-4 Rocket 3.6 05:44:57 10° NNW 05:50:28 85° W 05:56:09 10° S
IDEFIX/ARIANE 42P 4.3 05:46:15 10° NNE 05:50:58 34° E 05:55:40 10° SSE
CZ-4 R/B 2.7 05:50:07 10° NNE 05:53:52 40° E 05:57:33 10° S
Cosmos 44 Rocket 3.4 05:49:20 10° SW 05:54:27 60° NW 05:59:31 10° NNE
Cosmos 1536 2.7 05:52:53 10° SSW 05:56:51 66° W 06:00:51 10° N
Cosmos 2369 Rocket 2.2 05:52:30 15° NNW 05:57:14 65° WSW 06:02:51 10° S
Lacrosse 5 1.8 05:53:25 14° WSW 05:57:47 65° NW 06:02:52 10° NE
Okean 1 Rocket 3.4 05:55:10 10° SSW 05:59:20 41° WNW 06:03:31 10° N
Cosmos 1603 4.2 05:54:40 10° SW 05:59:55 38° WNW 06:05:11 10° NNE
Meteor 1-5 Rocket 4.3 05:56:25 10° S 06:01:45 72° E 06:07:02 10° NNE
Cosmos 1900 4.3 05:58:04 15° NNW 06:02:10 83° ENE 06:07:06 10° SSE
Cosmos 1544 Rocket 4.4 05:58:11 10° S 06:02:25 54° E 06:06:43 10° NNE
SL-24 DEB 4.3 05:58:24 10° S 06:03:08 63° W 06:07:55 10° N
CENTAUR R/B 3.9 06:02:04 18° NW 06:04:41 22° NNW 06:10:11 10° NNE
Cosmos 1452 Rocket 3.5 05:59:54 11° NNW 06:04:58 65° WSW 06:10:11 10° S
COSMO-SKYMED 1 3.4 06:01:42 10° SSW 06:05:28 29° W 06:07:44 19° NW
ATLAS 5 CENTAUR R/B 4.4 06:03:13 10° N 06:05:42 13° NNE 06:08:15 10° NE
Meteor 2-8 Rocket 4.5 06:00:20 10° N 06:06:31 87° E 06:12:42 10° S
Lacrosse 4 Rocket 2.3 06:10:26 10° NNW 06:14:29 46° NE 06:18:24 10° SE
Okean 1-7 Rocket 4.4 06:13:49 11° NNW 06:17:28 29° W 06:21:15 10° SSW
Tiangong 2 1.6 06:16:48 18° W 06:18:52 51° SSW 06:21:56 10° ESE
SL-8 Rocket 4.0 06:12:45 10° S 06:19:02 84° W 06:25:18 10° N
IRS-1A Rocket 4.3 06:14:28 10° NNE 06:20:12 83° WNW 06:26:01 10° SSW
GRACE-2 3.9 06:17:46 10° N 06:20:31 53° W 06:23:14 10° SSW
Lacrosse 5 rocket 3.6 06:18:23 10° NNW 06:20:50 15° N 06:23:22 10° NE
GRACE-1 4.0 06:18:13 10° N 06:20:56 51° W 06:23:39 10° SSW
Cosmos 1943 3.3 06:18:17 10° SW 06:23:44 50° WNW 06:29:15 10° NNE
Cosmos 1892 Rocket 3.6 06:20:42 10° NNW 06:25:09 68° W 06:29:35 10° S
Cosmos 1633 3.9 06:23:03 10° WSW 06:25:41 19° WNW 06:28:19 10° NNW
ATLAS 3B R/B 4.5 06:23:47 10° NNW 06:28:43 19° NNE 06:33:28 10° ENE
Cosmos 2366 rocket 4.1 06:24:44 10° S 06:31:03 89° E 06:37:26 10° N
Cosmos 1959 Rocket 4.4 06:27:06 10° SSW 06:33:12 78° W 06:39:20 10° N
USA 129 3.5 06:33:12 10° SW 06:34:39 16° W 06:35:19 14° WNW
Cosmos 2218 Rocket 4.0 06:31:44 10° SSW 06:38:07 73° W 06:44:32 10° N
Cosmos 1626 Rocket 4.2 06:34:24 10° N 06:38:49 60° E 06:43:08 10° SSE
Cosmos 1943 Rocket 2.2 06:33:26 10° NNW 06:38:53 63° WSW 06:44:18 10° S
Helios 1B rocket 2.5 06:36:00 10° S 06:40:07 67° WSW 06:44:16 10° NNW
PAYLOAD A 4.2 06:34:51 10° N 06:40:07 59° WNW 06:45:27 10° SSW
Cosmos 1975 3.1 06:37:14 10° S 06:41:19 75° E 06:45:26 10° NNE
Cosmos 839 Rocket 4.1 06:35:41 10° NW 06:42:19 75° WSW 06:48:25 10° SSE
Cosmos 1269 Rocket 4.0 06:39:34 10° SSW 06:44:49 68° WNW 06:50:08 10° NNE
Cosmos 158 Rocket 4.3 06:41:19 10° SSW 06:46:36 80° ESE 06:52:01 10° NNE
Cosmos 1500 3.4 06:47:11 10° S 06:50:56 76° E 06:54:42 10° NNE
Cosmos 1461 3.7 06:47:11 10° SSW 06:51:25 57° ESE 06:55:31 10° NE
Cosmos 1455 Rocket 3.1 06:47:26 10° SSW 06:51:41 55° WNW 06:55:57 10° N
SMAP 3.1 06:47:45 10° N 06:52:22 63° WNW 06:56:57 10° SSW
Cosmos 44 4.0 06:48:05 10° WSW 06:52:59 36° NW 06:57:45 10° NNE
Abrixas rocket 2.7 06:49:47 10° W 06:53:04 46° NNW 06:56:19 10° ENE
MSX 4.0 06:49:45 10° NNE 06:55:32 81° ESE 07:01:16 10° SSW
